Weather History for Bow Valley, AB

Change the Weather History Date:

Monday, April 22, 2013

  Actual Average Record
Temperature  
Mean Temperature 28 °F -  
Max Temperature 47 °F - - ()
Min Temperature 8 °F - - ()
Degree Days  
Heating Degree Days 38    
Moisture  
Dew Point 8 °F    
Average Humidity 51    
Maximum Humidity 91    
Minimum Humidity 8    
Precipitation  
Precipitation 0.00 in - - ()
Sea Level Pressure  
Sea Level Pressure 30.41 in    
Wind  
Wind Speed 5 mph ()    
Max Wind Speed 12 mph    
Max Gust Speed 20 mph    
T = Trace of Precipitation, MM = Missing Value Source: Averaged Metar Reports

Daily Weather History Graph

Daily Weather History Graph

Search for Another Location

Airport:

Trip Planner

Search our weather history database for the weather conditions in past years. The results will help you decide how hot, cold, wet, or windy it might be!

Date:

Astronomy

Apr. 22, 2013 Rise Set
Actual Time 6:30 AM MDT 8:48 PM MDT
Civil Twilight 5:53 AM MDT 9:24 PM MDT
Nautical Twilight 5:08 AM MDT 10:10 PM MDT
Astronomical Twilight 4:15 AM MDT 11:03 PM MDT
Moon 5:23 PM MDT (4/22) 4:49 AM MDT (4/22)
Length of Visible Light 15h 30m
Length of Day
14h 18m
Waxing Gibbous, 88% of the Moon is Illuminated
Apr 22
Waxing Gibbous
Apr 25
Full
May 2
Last Quarter
May 9
New
May 17
First Quarter

Hourly Weather History & Observations

Time (MDT) Temp. Windchill Dew Point Humidity Pressure Visibility Wind Dir Wind Speed Gust Speed Precip Events Conditions
12:00 AM 13 °F - 11 °F 87% 30.46 in - Calm Calm - -  
12:00 AM 13.1 °F - 10.9 °F 91% 30.46 in - Calm Calm - N/A   Unknown
1:00 AM 10.8 °F - 8.6 °F 91% 30.46 in - Calm Calm - N/A   Unknown
2:00 AM 9.3 °F - 7.2 °F 91% 30.47 in - SW 2.3 mph - N/A   Unknown
3:00 AM 18.7 °F 9.5 °F 12.9 °F 78% 30.45 in - WSW 6.9 mph - N/A   Unknown
4:00 AM 17.4 °F 10.4 °F 12.0 °F 79% 30.46 in - SW 4.6 mph - N/A   Unknown
5:00 AM 16.5 °F 6.0 °F 11.1 °F 79% 30.47 in - SW 8.1 mph - N/A   Unknown
6:00 AM 17 °F - 11 °F 66% 30.48 in - SW 10.4 mph - -  
6:00 AM 16.5 °F 4.3 °F 10.6 °F 77% 30.48 in - SW 10.4 mph 18.4 mph N/A   Unknown
7:00 AM 15.4 °F 3.8 °F 9.7 °F 78% 30.51 in - SW 9.2 mph 18.4 mph N/A   Unknown
8:00 AM 17.8 °F 5.9 °F 10.2 °F 72% 30.52 in - SW 10.4 mph 19.6 mph N/A   Unknown
9:00 AM 20.1 °F 9.5 °F 10.9 °F 68% 30.51 in - SW 9.2 mph - N/A   Unknown
10:00 AM 24.8 °F 14.0 °F 11.8 °F 58% 30.50 in - WSW 11.5 mph 19.6 mph N/A   Unknown
11:00 AM 29.8 °F 20.9 °F 13.5 °F 51% 30.48 in - West 10.4 mph 17.3 mph N/A   Unknown
12:00 PM 35.2 °F 28.8 °F 8.1 °F 32% 30.45 in - WSW 8.1 mph 19.6 mph N/A   Unknown
1:00 PM 38.5 °F 32.7 °F 7.7 °F 28% 30.43 in - WSW 8.1 mph - N/A   Unknown
2:00 PM 41.7 °F 37.3 °F 9.9 °F 27% 30.38 in - West 6.9 mph - N/A   Unknown
3:00 PM 43.7 °F 41.1 °F 9.1 °F 24% 30.35 in - WNW 4.6 mph - N/A   Unknown
4:00 PM 45.3 °F 43.0 °F 5.9 °F 20% 30.33 in - WSW 4.6 mph - N/A   Unknown
5:00 PM 45.9 °F 41.7 °F 3.4 °F 17% 30.31 in - WSW 8.1 mph - N/A   Unknown
6:00 PM 46 °F - 3 °F 8% 30.30 in - WSW 8.1 mph - -  
6:00 PM 45.7 °F 41.5 °F 3.4 °F 18% 30.30 in - WSW 8.1 mph - N/A   Unknown
7:00 PM 43.9 °F 38.3 °F 3.4 °F 19% 30.29 in - West 10.4 mph 19.6 mph N/A   Unknown
8:00 PM 40.8 °F 35.6 °F 4.1 °F 22% 30.28 in - West 8.1 mph - N/A   Unknown
9:00 PM 37.0 °F 32.4 °F 4.1 °F 25% 30.28 in - WSW 5.8 mph - N/A   Unknown
10:00 PM 35.2 °F 30.3 °F 5.5 °F 29% 30.28 in - WSW 5.8 mph - N/A   Unknown
11:00 PM 35.6 °F 29.2 °F 6.4 °F 30% 30.27 in - WSW 8.1 mph - N/A   Unknown